Location: Newark
(45.2500°N, 7.5833°E)
Time: 12:41:00
(UTC+00:00)

First-Move - Pass Details

Date: 01 March 2020
Orbit: 576 x 669 km, 97.6° (Epoch: 06 April)

Event Time Altitude Azimuth Distance (km) Brightness Sun altitude
Rises 05:30:52 0° 13° (NNE) 3,020 ? -7.2°
Reaches altitude 10° 05:33:08 10° 15° (NNE) 2,096 ? -6.8°
Maximum altitude 05:37:44 77° 102° (ESE) 680 ? -6.0°
Drops below altitude 10° 05:42:12 10° 189° (S) 2,039 ? -5.2°
Sets 05:44:22 0° 190° (S) 2,931 ? -4.8°
